This demonstration page uses our WeatherBlox Daily Observations layout. Learn more.

Hourly Observations for June 27, 2015

Temp ( °F °C ) Dew Point ( °F °C ) Humidity (%) Winds ( mph kmh ) Pressure ( in mb ) Visibility ( mi km ) Precip ( " mm )
12:15 am 00:15 Clear 63 17 57 14 83 83 Calm 30.09 1019 10 16.09344 0 0
12:35 am 00:35 Clear 63 17 57 14 83 83 Calm 30.09 1019 10 16.09344 0 0
12:55 am 00:55 Clear 61 16 57 14 88 88 Calm 30.09 1019 10 16.09344 0 0
1:15 am 01:15 Clear 61 16 57 14 88 88 Calm 30.12 1020 10 16.09344 0 0
1:35 am 01:35 Clear 59 15 55 13 88 88 Calm 30.12 1020 10 16.09344 0 0
1:55 am 01:55 Clear 59 15 55 13 88 88 Calm 30.12 1020 10 16.09344 0 0
2:15 am 02:15 Clear 59 15 55 13 88 88 Calm 30.09 1019 10 16.09344 0 0
2:35 am 02:35 Clear 57 14 55 13 94 94 Calm 30.09 1019 10 16.09344 0 0
2:55 am 02:55 Clear 59 15 55 13 88 88 Calm 30.09 1019 10 16.09344 0 0
3:15 am 03:15 Clear 59 15 55 13 88 88 Calm 30.09 1019 10 16.09344 0 0
3:35 am 03:35 Clear 59 15 55 13 88 88 Calm 30.12 1020 10 16.09344 0 0
3:55 am 03:55 Clear 57 14 55 13 94 94 Calm 30.09 1019 10 16.09344 0 0
4:15 am 04:15 Clear 57 14 55 13 94 94 Calm 30.09 1019 10 16.09344 0 0
4:35 am 04:35 Clear 57 14 54 12 88 88 Calm 30.09 1019 10 16.09344 0 0
4:55 am 04:55 Clear 57 14 55 13 94 94 Calm 30.09 1019 10 16.09344 0 0
5:15 am 05:15 Clear 57 14 55 13 94 94 W 5 7 30.09 1019 10 16.09344 0 0
5:35 am 05:35 Clear 57 14 55 13 94 94 Calm 30.12 1020 10 16.09344 0 0
5:55 am 05:55 Clear 57 14 54 12 88 88 Calm 30.12 1020 7 11.265408 0 0
6:15 am 06:15 Sunny 55 13 54 12 94 94 Calm 30.15 1021 7 11.265408 0 0
6:35 am 06:35 Sunny 57 14 55 13 94 94 Calm 30.12 1020 10 16.09344 0 0
6:55 am 06:55 Sunny 59 15 55 13 88 88 Calm 30.12 1020 10 16.09344 0 0
7:15 am 07:15 Sunny 61 16 57 14 88 88 W 3 6 30.12 1020 10 16.09344 0 0
7:35 am 07:35 Sunny 63 17 57 14 83 83 Calm 30.12 1020 10 16.09344 0 0
7:55 am 07:55 Sunny 64 18 59 15 83 83 Calm 30.09 1019 10 16.09344 0 0
8:15 am 08:15 Sunny 66 19 59 15 78 78 WNW 3 6 30.09 1019 10 16.09344 0 0
8:35 am 08:35 Sunny 70 21 61 16 73 73 W 6 9 30.06 1018 10 16.09344 0 0
8:55 am 08:55 Sunny 72 22 61 16 69 69 W 5 7 30.06 1018 10 16.09344 0 0
9:15 am 09:15 Sunny 73 23 59 15 61 61 W 7 11 30.06 1018 10 16.09344 0 0
9:35 am 09:35 Sunny 73 23 59 15 61 61 W 6 9 30.06 1018 10 16.09344 0 0
9:55 am 09:55 Sunny 75 24 59 15 57 57 W 7 11 30.06 1018 10 16.09344 0 0
10:15 am 10:15 Sunny 75 24 57 14 54 54 W 5 7 30.06 1018 10 16.09344 0 0
10:35 am 10:35 Sunny 77 25 59 15 54 54 W 6 9 30.03 1017 10 16.09344 0 0
10:55 am 10:55 Sunny 77 25 59 15 54 54 W 5 7 30.03 1017 10 16.09344 0 0
11:15 am 11:15 Sunny 79 26 55 13 45 45 W 3 6 30.03 1017 10 16.09344 0 0
11:35 am 11:35 Partly Cloudy 77 25 55 13 47 47 WSW 5 7 30.03 1017 10 16.09344 0 0
11:55 am 11:55 Partly Cloudy 77 25 55 13 47 47 W 7 11 30.03 1017 10 16.09344 0 0
12:15 pm 12:15 Partly Cloudy 79 26 55 13 45 45 NW 5 7 30.03 1017 10 16.09344 0 0
12:35 pm 12:35 Sunny 81 27 55 13 42 42 WNW 6 9 30 1016 10 16.09344 0 0
12:55 pm 12:55 Partly Cloudy 81 27 55 13 42 42 WNW 7 11 30 1016 10 16.09344 0 0
1:15 pm 13:15 Mostly Cloudy 79 26 54 12 42 42 NNW 5 7 30 1016 10 16.09344 0 0
1:35 pm 13:35 Partly Cloudy 81 27 54 12 39 39 NNE 3 6 30 1016 10 16.09344 0 0
1:55 pm 13:55 Mostly Cloudy 81 27 54 12 39 39 W 6 9 30 1016 10 16.09344 0 0
2:15 pm 14:15 Partly Cloudy 82 28 54 12 37 37 Calm 30 1016 10 16.09344 0 0
2:35 pm 14:35 Sunny 82 28 52 11 35 35 Calm 30 1016 10 16.09344 0 0
2:55 pm 14:55 Sunny 82 28 52 11 35 35 Calm 30 1016 10 16.09344 0 0
3:15 pm 15:15 Partly Cloudy 82 28 50 10 32 32 Calm 30 1016 10 16.09344 0 0
3:35 pm 15:35 Sunny 82 28 52 11 35 35 NW 7 11 30 1016 10 16.09344 0 0
3:55 pm 15:55 Partly Cloudy 82 28 52 11 35 35 N 6 9 30 1016 10 16.09344 0 0
4:15 pm 16:15 Partly Cloudy 84 29 52 11 33 33 WSW 6 9 29.97 1015 10 16.09344 0 0
4:35 pm 16:35 Partly Cloudy 82 28 52 11 35 35 Calm 29.94 1014 10 16.09344 0 0
4:55 pm 16:55 Mostly Cloudy 84 29 52 11 33 33 W 7 11 29.94 1014 10 16.09344 0 0
5:15 pm 17:15 Partly Cloudy 82 28 50 10 32 32 Calm 29.94 1014 10 16.09344 0 0
5:35 pm 17:35 Sunny 84 29 50 10 31 31 Calm 29.94 1014 10 16.09344 0 0
5:55 pm 17:55 Sunny 84 29 50 10 31 31 N 6 9 29.91 1013 10 16.09344 0 0
6:15 pm 18:15 Sunny 84 29 50 10 31 31 NW 6 9 29.91 1013 10 16.09344 0 0
6:35 pm 18:35 Sunny 84 29 50 10 31 31 NW 5 7 29.91 1013 10 16.09344 0 0
6:55 pm 18:55 Sunny 84 29 50 10 31 31 Calm 29.91 1013 10 16.09344 0 0
7:15 pm 19:15 Sunny 84 29 50 10 31 31 Calm 29.91 1013 10 16.09344 0 0
7:35 pm 19:35 Sunny 82 28 50 10 32 32 Calm 29.91 1013 10 16.09344 0 0
7:55 pm 19:55 Sunny 82 28 50 10 32 32 Calm 29.88 1012 10 16.09344 0 0
8:15 pm 20:15 Sunny 81 27 57 14 45 45 SSE 3 6 29.91 1013 10 16.09344 0 0
8:35 pm 20:35 Sunny 81 27 57 14 45 45 Calm 29.91 1013 10 16.09344 0 0
8:55 pm 20:55 Sunny 79 26 59 15 51 51 SSE 3 6 29.91 1013 10 16.09344 0 0
9:15 pm 21:15 Clear 75 24 61 16 61 61 SSE 3 6 29.91 1013 10 16.09344 0 0
9:35 pm 21:35 Clear 75 24 61 16 61 61 S 5 7 29.91 1013 10 16.09344 0 0
9:55 pm 21:55 Clear 73 23 59 15 61 61 S 5 7 29.94 1014 10 16.09344 0 0
10:15 pm 22:15 Clear 73 23 57 14 57 57 S 3 6 29.94 1014 10 16.09344 0 0
10:35 pm 22:35 Clear 72 22 57 14 61 61 Calm 29.94 1014 10 16.09344 0 0
10:55 pm 22:55 Clear 72 22 57 14 61 61 Calm 29.97 1015 10 16.09344 0 0
11:15 pm 23:15 Clear 72 22 57 14 61 61 Calm 29.97 1015 10 16.09344 0 0
11:35 pm 23:35 Clear 70 21 57 14 64 64 S 3 6 29.97 1015 10 16.09344 0 0
11:55 pm 23:55 Clear 68 20 57 14 69 69 Calm 30 1016 10 16.09344 0 0

Powered by AerisWeather